Flag for United Kingdom Weather past 2 weeks in Slough, England, United Kingdom

Now
61 °F

Passing clouds.


Feels Like: 61 °F
Forecast: 51 / 70 °F
Wind: 15 mph from Southwest

Location: London City Airport

Current Time: Jul 8, 2015 at 5:36:54 AM

Latest Report: Jul 8, 2015 at 4:20 AM


Visibility: N/A

Pressure: 29.74 "Hg

Humidity: 68%

Dew point: 50 °F

Location of SloughLocation

Historic Weather in Slough — Graph

°F

Slough temperature yesterday

Maximum temperature yesterday: 73 °F (at 12:20 PM)
Minimum temperature yesterday: 61 °F (at 4:50 AM)
Average temperature yesterday: 67 °F

Past Weeks' High & Low Weather Summary

 TemperatureHumidityPressure
High93 °F (Jul 1, 3:50 PM)94% (Jul 4, 12:20 AM)30.30 "Hg (Jul 4, 12:20 AM)
Low55 °F (Jun 23, 4:20 AM)20% (Jun 30, 1:50 PM)29.71 "Hg (Jul 7, 4:50 PM)
Average69 °F59%30.06 "Hg
* Reported Jun 23 4:20 AM — Jul 8 4:20 AM, Slough, Weather by CustomWeather, © 2015

Note: Actual official high and low records may vary slightly from our data, if they occured in-between our weather recording intervals... More about our weather records

Advertising

Slough weather history for previous 24 hours

 ConditionsComfort  
Time TempWeatherWind HumidityBarometerVisibility
4:20 AM
Wed, Jul 8
61 °FPassing clouds.15 mph68%29.74 "HgN/A
3:50 AM59 °FSprinkles. Passing clouds.15 mph72%29.74 "HgN/A
3:20 AM61 °FPassing clouds.14 mph68%29.77 "HgN/A
2:50 AM61 °FPassing clouds.15 mph68%29.77 "HgN/A
2:20 AM61 °FPartly cloudy.18 mph72%29.77 "HgN/A
1:50 AM61 °FPassing clouds.13 mph68%29.77 "HgN/A
1:20 AM61 °FPassing clouds.16 mph68%29.77 "HgN/A
12:50 AM61 °FCool.16 mph68%29.77 "HgN/A
12:20 AM61 °FPassing clouds.13 mph68%29.77 "HgN/A
11:50 PM
Tue, Jul 7
61 °FPassing clouds.14 mph63%29.77 "HgN/A
11:20 PM63 °FMild.16 mph59%29.77 "HgN/A
10:20 PM63 °FMild.20 mph56%29.77 "HgN/A
9:20 PM64 °FSunny.18 mph49%29.77 "Hg10 mi
8:50 PM66 °FSunny.18 mph43%29.74 "Hg10 mi
8:20 PM68 °FSunny.22 mph46%29.74 "Hg10 mi
7:50 PM68 °FSunny.24 mph43%29.74 "Hg10 mi
7:20 PM70 °FSunny.20 mph40%29.71 "Hg10 mi
6:50 PM70 °FSunny.20 mph46%29.71 "Hg10 mi
6:20 PM72 °FSunny.16 mph44%29.71 "Hg10 mi
5:50 PM72 °FSunny.18 mph41%29.71 "Hg10 mi
5:20 PM72 °FSunny.18 mph41%29.71 "Hg10 mi
4:50 PM72 °FPassing clouds.20 mph44%29.71 "HgN/A
4:20 PM73 °FScattered clouds.18 mph41%29.74 "HgN/A
3:50 PM73 °FScattered clouds.21 mph44%29.74 "HgN/A
3:20 PM73 °FScattered clouds.21 mph47%29.74 "HgN/A
2:50 PM73 °FPartly sunny.18 mph50%29.74 "HgN/A
2:20 PM72 °FScattered clouds.20 mph53%29.74 "HgN/A
1:50 PM72 °FScattered clouds.20 mph53%29.74 "HgN/A
1:20 PM73 °FBroken clouds.21 mph53%29.74 "HgN/A
12:50 PM72 °FScattered clouds.17 mph61%29.74 "HgN/A
12:20 PM73 °FScattered clouds.16 mph53%29.74 "HgN/A
11:50 AM72 °FScattered clouds.20 mph61%29.77 "HgN/A
11:20 AM70 °FScattered clouds.16 mph69%29.77 "HgN/A
10:50 AM68 °FPartly sunny.14 mph73%29.77 "HgN/A
10:20 AM68 °FMore clouds than sun.10 mph73%29.77 "HgN/A
9:50 AM66 °FBroken clouds.13 mph78%29.77 "HgN/A
9:20 AM66 °FPartly sunny.12 mph73%29.80 "HgN/A
8:50 AM68 °FPassing clouds.9 mph64%29.80 "HgN/A
8:20 AM66 °FPassing clouds.7 mph68%29.77 "HgN/A
7:50 AM66 °FSunny.10 mph68%29.83 "Hg10 mi
7:20 AM66 °FPassing clouds.9 mph64%29.83 "HgN/A
6:20 AM63 °FSunny.9 mph68%29.83 "Hg10 mi
5:50 AM63 °FSunny.7 mph68%29.86 "Hg10 mi
5:20 AM63 °FMild.7 mph68%29.86 "HgN/A
Weather by CustomWeather, © 2015

See weather overviewHow to use our weather pages